Time,TemperatureF,DewpointF,PressureIn,WindDirection,WindDirectionDegrees,WindSpeedMPH,WindSpeedGustMPH,Humidity,HourlyPrecipIn,Conditions,Clouds,dailyrainin,SoftwareType,DateUTC
2013-04-01 00:02:00,54.1,51.8,29.81,South,185,0.0,0.0,92,0.00,RA,,0.00,WeatherDisplay:10.37,2013-04-01 04:02:00,
2013-04-01 00:17:00,53.9,51.6,29.81,South,185,0.0,0.0,92,0.00,SCT,,0.00,WeatherDisplay:10.37,2013-04-01 04:17:00,
2013-04-01 00:32:00,53.9,51.6,29.81,South,185,0.0,0.0,92,0.00,SCT,,0.00,WeatherDisplay:10.37,2013-04-01 04:32:00,
2013-04-01 00:47:00,53.9,51.6,29.81,South,185,0.0,0.0,92,0.00,SCT,,0.00,WeatherDisplay:10.37,2013-04-01 04:47:00,
2013-04-01 01:02:00,53.8,51.5,29.81,South,185,0.0,0.0,92,0.00,SCT,,0.00,WeatherDisplay:10.37,2013-04-01 05:02:00,
2013-04-01 01:17:00,53.9,51.6,29.81,South,185,0.0,0.0,92,0.00,SCT,,0.00,WeatherDisplay:10.37,2013-04-01 05:17:00,
2013-04-01 01:32:00,53.9,51.6,29.81,South,185,0.0,0.0,92,0.00,SCT,,0.00,WeatherDisplay:10.37,2013-04-01 05:32:00,
2013-04-01 01:47:00,53.9,51.6,29.81,South,185,0.0,0.0,92,0.00,SCT,,0.00,WeatherDisplay:10.37,2013-04-01 05:47:00,
2013-04-01 02:02:00,53.9,51.6,29.81,South,185,0.0,0.0,92,0.00,SCT,,0.00,WeatherDisplay:10.37,2013-04-01 06:02:00,
2013-04-01 02:17:00,53.9,51.6,29.80,South,185,0.0,0.0,92,0.01,RA,,0.01,WeatherDisplay:10.37,2013-04-01 06:17:00,
2013-04-01 02:32:00,54.1,52.1,29.80,South,185,0.0,0.0,93,0.00,SCT,,0.01,WeatherDisplay:10.37,2013-04-01 06:32:00,
2013-04-01 02:47:00,54.1,52.1,29.80,South,185,0.0,0.0,93,0.00,SCT,,0.01,WeatherDisplay:10.37,2013-04-01 06:47:00,
2013-04-01 03:02:00,54.1,51.8,29.80,South,185,0.0,0.0,92,0.00,SCT,,0.01,WeatherDisplay:10.37,2013-04-01 07:02:00,
2013-04-01 03:17:00,54.1,52.1,29.80,South,185,0.0,0.0,93,0.00,SCT,,0.01,WeatherDisplay:10.37,2013-04-01 07:17:00,
2013-04-01 03:32:00,53.9,51.9,29.79,South,185,0.0,0.0,93,0.00,SCT,,0.01,WeatherDisplay:10.37,2013-04-01 07:32:00,
2013-04-01 03:47:00,53.9,51.9,29.79,South,185,0.0,0.0,93,0.00,SCT,,0.01,WeatherDisplay:10.37,2013-04-01 07:47:00,
2013-04-01 04:02:00,53.6,51.3,29.79,South,185,0.0,0.0,92,0.00,SCT,,0.01,WeatherDisplay:10.37,2013-04-01 08:02:00,
2013-04-01 04:32:00,53.5,51.5,29.79,South,185,0.0,0.0,93,0.00,SCT,,0.01,WeatherDisplay:10.37,2013-04-01 08:32:00,
2013-04-01 04:47:00,53.3,51.3,29.79,South,185,0.0,0.0,93,0.00,SCT,,0.01,WeatherDisplay:10.37,2013-04-01 08:47:00,
2013-04-01 05:02:00,53.2,51.2,29.80,South,185,0.0,0.0,93,0.00,SCT,,0.01,WeatherDisplay:10.37,2013-04-01 09:02:00,
2013-04-01 05:17:00,53.1,50.8,29.80,South,185,0.0,0.0,92,0.00,SCT,,0.01,WeatherDisplay:10.37,2013-04-01 09:17:00,
2013-04-01 05:32:00,52.8,50.5,29.81,South,185,0.0,0.0,92,0.00,SCT,,0.01,WeatherDisplay:10.37,2013-04-01 09:32:00,
2013-04-01 05:47:00,52.5,50.2,29.81,South,185,0.0,0.0,92,0.00,SCT,,0.01,WeatherDisplay:10.37,2013-04-01 09:47:00,
2013-04-01 06:02:00,52.2,49.9,29.82,South,185,0.0,0.0,92,0.00,SCT,,0.01,WeatherDisplay:10.37,2013-04-01 10:02:00,
2013-04-01 06:17:00,51.7,49.4,29.83,South,185,0.0,0.0,92,0.00,SCT,,0.01,WeatherDisplay:10.37,2013-04-01 10:17:00,
2013-04-01 06:32:00,51.4,49.1,29.83,South,185,0.0,0.0,92,0.00,SCT,,0.01,WeatherDisplay:10.37,2013-04-01 10:32:00,
2013-04-01 06:47:00,51.0,48.8,29.83,South,185,0.0,0.0,92,0.00,SCT,,0.01,WeatherDisplay:10.37,2013-04-01 10:47:00,
2013-04-01 07:02:00,50.5,48.3,29.84,South,185,0.0,0.0,92,0.00,SCT,,0.01,WeatherDisplay:10.37,2013-04-01 11:02:00,
2013-04-01 07:17:00,49.8,47.6,29.85,South,185,0.0,0.0,92,0.00,SCT,,0.01,WeatherDisplay:10.37,2013-04-01 11:17:00,
2013-04-01 07:32:00,49.4,47.2,29.85,South,185,0.0,0.0,92,0.00,SCT,,0.01,WeatherDisplay:10.37,2013-04-01 11:32:00,
2013-04-01 07:47:00,48.8,46.6,29.86,South,185,0.0,0.0,92,0.00,SCT,,0.01,WeatherDisplay:10.37,2013-04-01 11:47:00,
2013-04-01 08:02:00,48.3,46.1,29.86,South,185,0.0,0.0,92,0.00,SCT,,0.01,WeatherDisplay:10.37,2013-04-01 12:02:00,
2013-04-01 08:17:00,48.0,45.8,29.87,South,185,0.0,0.0,92,0.00,SCT,,0.01,WeatherDisplay:10.37,2013-04-01 12:17:00,
2013-04-01 08:32:00,48.0,45.8,29.86,South,185,0.0,0.0,92,0.00,SCT,,0.01,WeatherDisplay:10.37,2013-04-01 12:32:00,
2013-04-01 08:47:00,48.7,46.4,29.86,South,185,0.0,0.0,92,0.00,SCT,,0.01,WeatherDisplay:10.37,2013-04-01 12:47:00,
2013-04-01 09:47:00,55.7,45.3,29.85,WNW,288,0.0,2.0,68,0.00,SCT,,0.01,WeatherDisplay:10.37,2013-04-01 13:47:00,
2013-04-01 10:02:00,57.3,44.0,29.86,WNW,289,1.0,3.0,61,0.00,SCT,,0.01,WeatherDisplay:10.37,2013-04-01 14:02:00,
2013-04-01 10:17:00,58.6,44.3,29.86,WSW,249,0.0,7.0,59,0.00,SCT,,0.01,WeatherDisplay:10.37,2013-04-01 14:17:00,
2013-04-01 10:32:00,60.0,44.2,29.86,WNW,294,1.0,9.0,56,0.00,SCT,,0.01,WeatherDisplay:10.37,2013-04-01 14:32:00,
2013-04-01 10:47:00,61.2,45.4,29.86,NW,304,0.0,4.0,56,0.00,SCT,,0.01,WeatherDisplay:10.37,2013-04-01 14:47:00,
2013-04-01 11:02:00,62.0,43.1,29.86,NW,306,0.0,10.0,50,0.00,SCT,,0.01,WeatherDisplay:10.37,2013-04-01 15:02:00,
2013-04-01 11:17:00,62.9,41.2,29.85,North,353,2.0,8.0,45,0.00,SCT,,0.01,WeatherDisplay:10.37,2013-04-01 15:17:00,
2013-04-01 11:47:00,64.7,38.5,29.85,NW,318,7.0,13.0,38,0.00,SCT,,0.01,WeatherDisplay:10.37,2013-04-01 15:47:00,
2013-04-01 12:02:00,65.1,40.8,29.85,NW,313,3.0,12.0,41,0.00,SCT,,0.01,WeatherDisplay:10.37,2013-04-01 16:02:00,
2013-04-01 12:17:00,65.6,39.9,29.84,NW,312,5.0,10.0,39,0.01,RA,,0.02,WeatherDisplay:10.37,2013-04-01 16:17:00,
2013-04-01 12:32:00,66.0,40.9,29.84,NW,307,2.0,15.0,40,0.00,SCT,,0.02,WeatherDisplay:10.37,2013-04-01 16:32:00,
2013-04-01 12:47:00,66.6,40.2,29.84,NW,308,2.0,15.0,38,0.00,SCT,,0.02,WeatherDisplay:10.37,2013-04-01 16:47:00,
2013-04-01 13:02:00,67.3,40.1,29.84,WNW,283,3.0,12.0,37,0.00,SCT,,0.02,WeatherDisplay:10.37,2013-04-01 17:02:00,
2013-04-01 13:17:00,67.6,40.4,29.83,North,354,1.0,10.0,37,0.00,SCT,,0.02,WeatherDisplay:10.37,2013-04-01 17:17:00,
2013-04-01 13:32:00,68.1,37.9,29.83,West,274,2.0,10.0,33,0.00,SCT,,0.02,WeatherDisplay:10.37,2013-04-01 17:32:00,
2013-04-01 13:47:00,68.1,37.9,29.82,NW,317,2.0,10.0,33,0.00,SCT,,0.02,WeatherDisplay:10.37,2013-04-01 17:47:00,
2013-04-01 14:02:00,68.8,37.7,29.82,NW,325,2.0,17.0,32,0.00,SCT,,0.02,WeatherDisplay:10.37,2013-04-01 18:02:00,
2013-04-01 14:17:00,67.9,36.9,29.82,NW,304,2.0,14.0,32,0.00,SCT,,0.02,WeatherDisplay:10.37,2013-04-01 18:17:00,
2013-04-01 14:32:00,67.4,38.0,29.82,NW,319,5.0,9.0,34,0.00,SCT,,0.02,WeatherDisplay:10.37,2013-04-01 18:32:00,
2013-04-01 14:47:00,67.1,37.0,29.82,NW,305,2.0,14.0,33,0.00,SCT,,0.02,WeatherDisplay:10.37,2013-04-01 18:47:00,
2013-04-01 15:02:00,69.6,39.2,29.81,WNW,285,1.0,12.0,33,0.00,SCT,,0.02,WeatherDisplay:10.37,2013-04-01 19:02:00,
2013-04-01 15:17:00,68.8,36.9,29.82,NW,310,3.0,16.0,31,0.00,SCT,,0.02,WeatherDisplay:10.37,2013-04-01 19:17:00,
2013-04-01 15:32:00,69.0,36.2,29.82,WNW,299,7.0,18.0,30,0.00,SCT,,0.02,WeatherDisplay:10.37,2013-04-01 19:32:00,
2013-04-01 15:47:00,67.7,35.1,29.82,NW,310,3.0,18.0,30,0.00,SCT,,0.02,WeatherDisplay:10.37,2013-04-01 19:47:00,
2013-04-01 16:02:00,68.5,34.9,29.82,WNW,302,8.0,14.0,29,0.00,SCT,,0.02,WeatherDisplay:10.37,2013-04-01 20:02:00,
2013-04-01 16:17:00,66.1,35.4,29.82,West,280,7.0,23.0,32,0.00,SCT,,0.02,WeatherDisplay:10.37,2013-04-01 20:17:00,
2013-04-01 16:32:00,66.3,36.3,29.82,WNW,303,3.0,23.0,33,0.00,SCT,,0.02,WeatherDisplay:10.37,2013-04-01 20:32:00,
2013-04-01 16:47:00,66.0,37.5,29.82,NNW,347,5.0,18.0,35,0.00,SCT,,0.02,WeatherDisplay:10.37,2013-04-01 20:47:00,
2013-04-01 17:02:00,65.1,36.0,29.82,North,354,2.0,12.0,34,0.00,SCT,,0.02,WeatherDisplay:10.37,2013-04-01 21:02:00,
2013-04-01 17:17:00,65.0,37.4,29.83,WNW,300,1.0,17.0,36,0.00,SCT,,0.02,WeatherDisplay:10.37,2013-04-01 21:17:00,
2013-04-01 17:32:00,65.0,38.1,29.83,NNW,343,1.0,20.0,37,0.00,SCT,,0.02,WeatherDisplay:10.37,2013-04-01 21:32:00,
2013-04-01 17:47:00,64.5,37.0,29.84,WNW,285,3.0,15.0,36,0.00,SCT,,0.02,WeatherDisplay:10.37,2013-04-01 21:47:00,
2013-04-01 18:02:00,63.9,37.8,29.84,WSW,256,5.0,16.0,38,0.00,SCT,,0.02,WeatherDisplay:10.37,2013-04-01 22:02:00,
2013-04-01 18:17:00,63.7,37.6,29.84,WNW,290,5.0,12.0,38,0.00,SCT,,0.02,WeatherDisplay:10.37,2013-04-01 22:17:00,
2013-04-01 18:32:00,63.5,37.4,29.84,NW,312,5.0,12.0,38,0.00,SCT,,0.02,WeatherDisplay:10.37,2013-04-01 22:32:00,
2013-04-01 18:47:00,63.2,37.2,29.84,West,264,2.0,16.0,38,0.00,SCT,,0.02,WeatherDisplay:10.37,2013-04-01 22:47:00,
2013-04-01 19:02:00,62.7,36.7,29.84,NW,319,1.0,16.0,38,0.00,SCT,,0.02,WeatherDisplay:10.37,2013-04-01 23:02:00,
2013-04-01 19:17:00,62.0,37.4,29.85,WNW,286,3.0,9.0,40,0.00,SCT,,0.02,WeatherDisplay:10.37,2013-04-01 23:17:00,
2013-04-01 19:32:00,61.3,37.4,29.86,NW,317,0.0,9.0,41,0.00,SCT,,0.02,WeatherDisplay:10.37,2013-04-01 23:32:00,
2013-04-01 19:47:00,60.7,36.9,29.86,NW,304,1.0,7.0,41,0.00,SCT,,0.02,WeatherDisplay:10.37,2013-04-01 23:47:00,
2013-04-01 20:02:00,60.5,36.7,29.86,West,279,3.0,13.0,41,0.00,SCT,,0.02,WeatherDisplay:10.37,2013-04-02 00:02:00,
2013-04-01 20:17:00,60.2,36.4,29.86,NW,311,2.0,14.0,41,0.00,SCT,,0.02,WeatherDisplay:10.37,2013-04-02 00:17:00,
2013-04-01 20:32:00,59.6,37.1,29.86,NW,316,3.0,12.0,43,0.00,SCT,,0.02,WeatherDisplay:10.37,2013-04-02 00:32:00,
2013-04-01 20:47:00,59.3,37.4,29.87,West,266,0.0,5.0,44,0.00,SCT,,0.02,WeatherDisplay:10.37,2013-04-02 00:47:00,
2013-04-01 21:02:00,58.9,37.6,29.88,WNW,297,0.0,9.0,45,0.00,SCT,,0.02,WeatherDisplay:10.37,2013-04-02 01:02:00,
2013-04-01 21:17:00,57.8,37.1,29.88,West,272,1.0,6.0,46,0.00,SCT,,0.02,WeatherDisplay:10.37,2013-04-02 01:17:00,
2013-04-01 21:32:00,57.2,37.1,29.88,NNW,329,0.0,5.0,47,0.00,SCT,,0.02,WeatherDisplay:10.37,2013-04-02 01:32:00,
2013-04-01 21:47:00,56.3,36.8,29.89,NNW,339,0.0,4.0,48,0.00,SCT,,0.02,WeatherDisplay:10.37,2013-04-02 01:47:00,
2013-04-01 22:02:00,55.9,36.5,29.89,West,265,0.0,3.0,48,0.00,SCT,,0.02,WeatherDisplay:10.37,2013-04-02 02:02:00,
2013-04-01 22:17:00,55.9,35.9,29.90,NW,321,0.0,5.0,47,0.00,SCT,,0.02,WeatherDisplay:10.37,2013-04-02 02:17:00,
2013-04-01 22:32:00,55.0,36.1,29.90,NW,310,0.0,3.0,49,0.00,SCT,,0.02,WeatherDisplay:10.37,2013-04-02 02:32:00,
2013-04-01 22:47:00,53.4,36.2,29.91,NW,304,0.0,1.0,52,0.00,SCT,,0.02,WeatherDisplay:10.37,2013-04-02 02:47:00,
2013-04-01 23:02:00,52.6,36.9,29.92,NW,304,0.0,1.0,55,0.00,SCT,,0.02,WeatherDisplay:10.37,2013-04-02 03:02:00,
2013-04-01 23:17:00,53.2,34.5,29.93,NW,313,2.0,5.0,49,0.00,SCT,,0.02,WeatherDisplay:10.37,2013-04-02 03:17:00,
2013-04-01 23:32:00,52.2,34.1,29.94,NNW,347,1.0,12.0,50,0.00,SCT,,0.02,WeatherDisplay:10.37,2013-04-02 03:32:00,
2013-04-01 23:47:00,50.7,33.7,29.94,North,350,2.0,12.0,52,0.00,SCT,,0.02,WeatherDisplay:10.37,2013-04-02 03:47:00,